SCOUT X-4 R/B, 871

Orbit data source: Space-Track

SCOUT X-4 R/B, 871 is space debris in LEO originally from a launch on Tue, 25 Aug 1964 UTC launched from the Air Force Western Test Range (AFWTR). Debris objects in space refer to the collection of defunct objects orbiting the Earth. Examples of debris include non-operational satellites, rocket bodies, and fragments generated from explosions, collisions, or faulty payload assembly.

Loading next visibility...
Identifier
871, 1964-051B
Orbit
LEO
Country
Flag of USUS
Related business
Manufacturer
ABL
Mission
Spacecraft
Bus & Motor
ALTAIR, Unknown motor
Mass
33 kg wet, 33 kg dry
Launch date (UTC)
1964-08-25 (62 years ago)
Launch vehicle
Unknown
Launch site
Air Force Western Test Range (AFWTR)
Object type
Payload
Rocket body
Debris
Shape & HBR
Unknown
Radar Cross Section
Medium (>0.1 m² and <1 m²)

Expand to show TLE details & history
Last TLE update: 20 hours ago

TLE from 20 hours ago
0 SCOUT X-4 R/B
1 00871U 64051B   26126.39342317  .00000179  00000-0  11244-3 0  9993
2 00871  79.8912 113.9994 0084910 257.1889 101.9775 14.00674313139015
Epoch: 2026-05-06T09:26Z
TLE epoch observation values (Epoch: 2026-05-06T09:26:31.761Z)
Latitude
0.00001°
Longitude
108.11251°
Altitude
907.614 km
Speed
7.391 km/s
True Right ascension
07h 35m 59s
True Declination
0° 00' 00"
Sunlit
Object was in daylight at epoch
Visualization orbit readout
Latitude
Unknown
Longitude
Unknown
Altitude
Unknown
Speed
Unknown
Apparent Right ascension
Unknown
Apparent Declination
Unknown
Sunlit
N/A
Visualization observer readout
Local Sidereal Time
13:15:46
Azimuth
Unknown
Elevation
Unknown
Doppler factor
Unknown
Orbital elements
Apogee altitude
950.42 km
Perigee altitude
827.014 km
Semi-major axis
7,266.854 km
Eccentricity
0.00849
Inclination
79.8912°
RAAN
113.9994°
Arg. of periapsis
257.1889°
True anomaly
102.92718°
Mean anomaly
101.9775°
Eccentric anomaly
102.45255°
Mean motion
3.50367 °/min
Orbital period
102.75 mins
BSTAR
0.00011244
Loading maneuver chart data...
Computing Atmospheric mass density...
Loading historical data...
Loading historical data...
Loading historical data...
Loading historical data...
Loading historical data...
Loading historical data...
Loading historical data...

Documentation

Showing up to 5 results
|